Das Wetter in  D-61279 Heinzenberg / Taunus





Wetter Minimum- & Maximum-Werte im Juni 2018

Standort: Heinzenberg / Taunus - Höhe 297 m         8 24' 1" Ost 50 21' 51" Nord
(   3-stündige Aktualisierung    letzte Aktualisierung um 04:31 am 30.06.2018  )


Messgrösse

Minimum

Maximum

Durchschnitt

Temperatur West /
Luftfeuchte West
Anklicken für Monats-Diagramm

8,5 C

04:00
23.06.2018

27 %

17:31
30.06.2018

33,3 C

17:55
29.06.2018

93 %

09:25
08.06.2018

Temp

18,7 C

Feuchte

69 %

Temperatur Ost /
Luftfeuchte Ost
Anklicken für Monats-Diagramm

8,6 C

04:00
23.06.2018

--

--
--

33,2 C

17:45
29.06.2018

--

--
--

18,9 C

--

Luftdruck Anklicken für Monats-Diagramm

1006,1 hPa

17:16
04.06.2018

1025,3 hPa

04:00
23.06.2018

1015,4 hPa

Taupunkt

3,8 C

21:23
21.06.2018

22,2 C

17:30
08.06.2018

12,6 C

Windchill
( gefühlte Temperatur )

1,3 C

06:24
22.06.2018

33,3 C

17:55
29.06.2018

18,1 C

Windgeschwindigkeit /
Windrichtung
Anklicken für Monats-Diagramm

---

45,6 km/h / NW

10:58
21.06.2018

4,3 km/h
NW

Helligkeit /
Sonnenschein
Anklicken für Monats-Diagramm
Anklicken für Monats-Diagramm

Sonnenschein:

220:10 Stunden

Max: 14:30 Std am
30.06.2018

119,0 klux

12:24
22.06.2018

39 klux

Solarstrahlung Anklicken für Monats-Diagramm

---

814 W/m

12:24
22.06.2018

284 W/m

Regenmenge
    Juni 2018
Anklicken für Monats-Diagramm

Insgesamt 107,5 l/m

in 27:01 Stunden
an 11 Tagen

64,9 l/m

15:59
07.06.2018

Gesamtmenge

107,5 l/m

Regen-Tage
    Juni 2018
Anklicken für Monats-Diagramm

>   0 mm/Tag

>   2 mm/Tag

>   5 mm/Tag

> 10 mm/Tag

> 20 mm/Tag

11 Tage     
4 Tage     
4 Tage     
2 Tage     
2 Tage     

Eisige Tage Juni 2018 / 2017

Tmin ≤ -10C     

0 Tage

/

0 Tage

Eistage Juni 2018 / 2017

Tmax <     0C     

0 Tage

/

0 Tage

Frosttage Juni 2018 / 2017

Tmin ≤     0C     

0 Tage

/

0 Tage

Kalte Tage Juni 2018 / 2017

Tmax <   10C     

0 Tage

/

0 Tage

Warme Tage Juni 2018 / 2017

Tmax ≥   20C     

26 Tage

/

28 Tage

Sommertage Juni 2018 / 2017

Tmax ≥   25C     

17 Tage

/

15 Tage

Heisse Tage Juni 2018 / 2017

Tmax ≥   30C     

7 Tage

/

6 Tage


Monatsdiagramm Juni 2018

Die Kurven zeigen den Durchschnittswert des jeweiligen Tages an


Wetter-Monatsübersicht Juni 2018
Datum
  Temperatur
   Luftdruck
   Wind
  Regen
   Luftfeuchte
   Helligkeit

Sonnen-
schein


Temp.

Min.
Temp.

Max.
Temp.


Luftdruck

Min.
Luftdruck

Max.
Luftdruck

-Geschw.
Haupt-Richtg.

Max.
Wind

Menge /
Dauer


Feuchte

Min.
Feuchte

Max.
Feuchte


Helligkeit

Max.
Helligkeit

1.
Juni
18,9 C16,4 C
23:59
23,0 C
16:19
1013,8 hPa1011,7 hPa
00:03
1016,1 hPa
23:59
9,8 km/h
W-SW
37,9 km/h
12:59  
1,2 l/m
1:40 Stunden
80 %64 %
16:24
89 %
05:48
31,9 klux114,0 klux
15:54
3:35 Std 
2.
Juni
19,3 C14,8 C
05:29
27,2 C
16:49
1016,1 hPa1013,8 hPa
16:49
1017,3 hPa
05:44
6,6 km/h
W-NW
22,8 km/h
17:09  
---
73 %46 %
16:19
86 %
04:59
43 klux110 klux
13:04
7:55 Std 
3.
Juni
20,3 C12,0 C
06:20
29,8 C
17:25
1015,4 hPa1011,5 hPa
19:00
1018,3 hPa
08:40
1,4 km/h
NW
14,0 km/h
16:10  
---
66 %40 %
17:45
88 %
08:25
54 klux102 klux
14:50
13:20 Std 
4.
Juni
21,7 C12,2 C
06:26
31,6 C
17:16
1010,0 hPa1006,1 hPa
17:16
1014,2 hPa
01:31
1,5 km/h
SO
14,2 km/h
14:41  
---
63 %36 %
16:01
87 %
07:36
52 klux101 klux
13:31
13:15 Std 
5.
Juni
21,7 C14,0 C
05:42
30,8 C
17:27
1009,4 hPa1007,2 hPa
17:27
1011,2 hPa
06:57
1,1 km/h
NO
13,1 km/h
15:02  
---
64 %39 %
17:37
85 %
07:22
48 klux93 klux
13:52
11:10 Std 
6.
Juni
22,1 C12,6 C
06:23
32,7 C
16:23
1010,3 hPa1008,1 hPa
17:23
1011,7 hPa
23:59
1,1 km/h
NW
14,0 km/h
14:23  
---
62 %37 %
16:38
84 %
08:13
50,9 klux98,3 klux
15:03
11:40 Std 
7.
Juni
19,1 C13,8 C
05:54
29,2 C
13:34
1012,5 hPa1010,5 hPa
14:54
1014,8 hPa
15:59
1,2 km/h
NW
27,4 km/h
15:49  
64,9 l/m
3:05 Stunden
77 %53 %
13:34
89 %
22:25
32,0 klux97,0 klux
13:14
6:20 Std 
8.
Juni
20,4 C16,1 C
05:55
28,5 C
14:40
1011,0 hPa1008,6 hPa
17:30
1013,0 hPa
07:30
0,8 km/h
NW
19,0 km/h
15:35  
25,7 l/m
3:40 Stunden
82 %62 %
14:50
93 %
09:25
39,0 klux107,0 klux
13:20
6:15 Std 
9.
Juni
21,6 C15,3 C
06:21
30,8 C
16:06
1009,9 hPa1007,2 hPa
16:06
1011,0 hPa
06:21
2,4 km/h
NW
20,5 km/h
21:26  
---
75 %49 %
15:56
91 %
08:26
44 klux96 klux
13:56
7:40 Std 
10.
Juni
22,2 C17,5 C
06:31
29,1 C
17:57
1009,3 hPa1007,4 hPa
17:57
1010,7 hPa
07:57
2,4 km/h
NW
16,6 km/h
13:47  
0,9 l/m
1:59 Stunden
73 %51 %
17:57
90 %
08:02
43,9 klux105,0 klux
14:17
7:50 Std 
11.
Juni
19,1 C15,7 C
23:59
25,2 C
13:43
1009,0 hPa1007,4 hPa
16:33
1010,6 hPa
02:18
0,3 km/h
NO
8,9 km/h
10:03  
8,1 l/m
6:26 Stunden
81 %64 %
13:48
88 %
21:13
19 klux115 klux
13:22
45 Min 
12.
Juni
15,8 C13,4 C
07:04
18,8 C
17:44
1009,3 hPa1008,0 hPa
01:14
1010,2 hPa
08:59
0,1 km/h
NO
1,2 km/h
14:19  
5,6 l/m
6:35 Stunden
84 %68 %
17:14
90 %
03:14
16 klux66 klux
14:04
5 Min 
13.
Juni
14,3 C13,0 C
23:56
15,6 C
13:05
1013,9 hPa1013,1 hPa
13:05
1016,5 hPa
23:46
0,7 km/h
NW
17,8 km/h
12:30  
---
74 %68 %
12:30
80 %
23:56
16,6 klux57,5 klux
12:20
--- 
14.
Juni
15,6 C9,4 C
06:26
22,6 C
14:46
1014,5 hPa1012,3 hPa
14:56
1015,9 hPa
06:26
3,8 km/h
W-SW
18,2 km/h
14:46  
1,1 l/m
2:36 Stunden
71 %46 %
14:36
90 %
08:06
42,2 klux112,0 klux
14:36
6:50 Std 
15.
Juni
17,2 C13,8 C
05:27
23,0 C
17:27
1015,2 hPa1014,3 hPa
03:17
1016,3 hPa
08:37
0,2 km/h
SO
7,1 km/h
12:22  
---
25 Minuten
78 %62 %
18:02
88 %
06:32
26 klux106 klux
16:42
1:50 Std 
16.
Juni
18,6 C11,8 C
04:48
25,2 C
14:58
1013,5 hPa1011,1 hPa
19:28
1015,6 hPa
04:48
1,9 km/h
W-SW
20,1 km/h
15:08  
---
72 %50 %
15:23
88 %
06:38
32 klux110 klux
13:28
5:50 Std 
17.
Juni
17,4 C14,0 C
07:24
23,2 C
15:04
1015,8 hPa1013,9 hPa
00:04
1019,5 hPa
23:55
7,7 km/h
NW
31,5 km/h
14:39  
---
10 Minuten
70 %50 %
15:19
86 %
03:09
36 klux115 klux
13:54
5:20 Std 
18.
Juni
16,9 C11,5 C
02:25
22,4 C
15:25
1019,7 hPa1018,6 hPa
18:50
1020,8 hPa
06:30
6,3 km/h
W
20,6 km/h
15:15  
---
70 %56 %
15:30
83 %
06:15
30 klux116 klux
15:15
2:55 Std 
19.
Juni
18,4 C13,6 C
05:16
22,5 C
17:56
1021,5 hPa1020,2 hPa
00:01
1022,8 hPa
14:11
3,9 km/h
NW
14,8 km/h
11:06  
---
76 %65 %
12:26
88 %
06:56
33 klux114 klux
11:26
5:25 Std 
20.
Juni
22,5 C15,7 C
05:37
31,5 C
16:12
1018,9 hPa1014,6 hPa
18:52
1022,4 hPa
05:37
2,2 km/h
NW
15,8 km/h
18:07  
---
66 %43 %
15:57
87 %
06:07
51 klux109 klux
12:42
12:20 Std 
21.
Juni
17,1 C11,4 C
23:49
21,4 C
16:28
1015,9 hPa1012,5 hPa
10:43
1021,9 hPa
23:54
16,2 km/h
NW
45,6 km/h
10:58  
---
20 Minuten
64 %37 %
16:58
85 %
07:18
41 klux112 klux
13:18
9:30 Std 
22.
Juni
12,1 C8,6 C
04:09
17,0 C
15:59
1022,7 hPa1021,7 hPa
11:04
1025,0 hPa
23:55
19,0 km/h
W-NW
37,8 km/h
16:24  
---
5 Minuten
68 %56 %
16:04
76 %
04:49
26 klux119 klux
12:24
2:20 Std 
23.
Juni
12,8 C8,5 C
04:00
17,7 C
16:40
1024,0 hPa1021,2 hPa
19:20
1025,3 hPa
04:00
13,9 km/h
W-NW
34,9 km/h
15:15  
---
71 %58 %
14:40
84 %
06:05
37 klux116 klux
13:55
6:15 Std 
24.
Juni
14,7 C9,3 C
06:11
20,4 C
14:56
1020,3 hPa1018,7 hPa
14:56
1023,0 hPa
01:41
6,8 km/h
NW
23,1 km/h
13:16  
---
69 %49 %
15:06
86 %
07:46
30 klux108 klux
12:36
2:55 Std 
25.
Juni
17,3 C13,2 C
05:27
23,2 C
15:02
1020,7 hPa1019,4 hPa
00:32
1022,4 hPa
23:57
5,6 km/h
NW
20,5 km/h
18:02  
---
68 %50 %
15:02
82 %
06:02
35 klux112 klux
13:22
4:00 Std 
26.
Juni
19,2 C12,1 C
06:17
27,3 C
16:32
1021,3 hPa1020,0 hPa
16:32
1022,8 hPa
06:17
2,6 km/h
NW
23,1 km/h
10:12  
---
65 %46 %
17:37
84 %
07:57
52 klux97 klux
12:17
13:55 Std 
27.
Juni
19,3 C9,7 C
06:08
28,4 C
15:48
1021,1 hPa1018,8 hPa
15:48
1023,1 hPa
06:08
2,3 km/h
NO
22,8 km/h
16:28  
---
60 %36 %
17:13
86 %
08:08
51,9 klux109,0 klux
12:28
13:30 Std 
28.
Juni
19,8 C9,5 C
05:44
29,6 C
16:49
1018,9 hPa1014,9 hPa
17:44
1022,1 hPa
05:44
1,6 km/h
NO
17,7 km/h
12:54  
---
59 %41 %
16:39
80 %
06:39
41 klux103 klux
13:39
8:40 Std 
29.
Juni
24,7 C17,6 C
06:45
33,3 C
17:55
1014,3 hPa1011,1 hPa
17:55
1017,0 hPa
06:50
1,8 km/h
NO
14,2 km/h
14:00  
---
50 %32 %
17:30
68 %
07:15
51 klux91 klux
13:45
14:15 Std 
30.
Juni
22,0 C12,9 C
06:21
30,9 C
17:16
1013,1 hPa1011,3 hPa
17:16
1014,9 hPa
23:51
3,0 km/h
NO
21,7 km/h
11:26  
---
51 %27 %
17:31
78 %
06:31
51,8 klux92,2 klux
13:36
14:30 Std 



Juni
2018

Temperatur

  

Luftdruck

  

Wind

  

Regen

  

Luftfeuchte

  

Helligkeit

Sonnen-
schein

Min

Max

Min

Max

Max

Max

Min

Max

Max

Max

18,7 C

8,5 C

04:00 Uhr
23.06.2018

33,3 C

17:55 Uhr
29.06.2018

1015,4 hPa

1006,1 hPa

17:16 Uhr
04.06.2018

1025,3 hPa

04:00 Uhr
23.06.2018

4,3 km/h

NW

45,6 km/h

10:58 Uhr
21.06.2018

64,9 l/m

3:05 Stunden
07.06.2018

69 %

27 %

17:31 Uhr
30.06.2018

93 %

09:25 Uhr
08.06.2018

38,6 klux

119,0 klux

12:24 Uhr
22.06.2018

14:30 Std

am
30.06.2018

Gesamt

Gesamt

107,5 l/m

11 Tage
27:01 h

220:10 Std


Wetter-Diagramme Juni 2018     Heinzenberg / Taunus   
TemperaturLuftfeuchte
SolarstrahlungLuftdruck
HelligkeitSonnenschein
RegenmengeRegendauer
Wind-GeschwindigkeitWind-Richtung